User: anonymous   Login
Location: Unspecified
(0.0000°N, 0.0000°E)
Time: 18:27:15
(UTC+00:00)
Language:

YUBELEINY 2 - Orbit

View from above orbital plane
View from above orbital plane
View from above satellite
View from above satellite

Ground track
Ground track

The orbit data is extracted from the following two-line orbital elements,

1 38735U 12041C   17080.92929468 +.00000005 +00000-0 -31909-4 0  9991
2 38735 082.4798 018.5909 0015838 216.2734 143.7273 12.42573033210839
Epoch (UTC): 21 March 2017 22:18:11
Eccentricity: 0.0015838
inclination: 82.4798°
perigee height: 1483 km
apogee height: 1508 km
right ascension of ascending node: 18.5909°
argument of perigee: 216.2734°
revolutions per day: 12.42573033
mean anomaly at epoch: 143.7273°
orbit number at epoch: 21083

The dashed part of the orbit path shows where the satellite is in the earth's shadow,  

DLR